Погода в Новоаннинском

Россия / Волгоградская область     50°31′46″N   42°40′00″E
темп.,
°C
ветер,
м/с
пор.,
м/с
влажн.,
%
обл.,
%
осадки,
мм/ч
давл.,
гПа
погр.,
м
16 мая, вс
вс1600:00+18ююв11695 0.0 101311
03:00+16в117553 0.0 101411
06:00+16ююв37565 0.0 1014132
09:00+22ююв574499 0.0 1014482
12:00+26ю5835100 0.0 10141116
15:00+28ююв573170 0.0 10131789
18:00+26юв2247100 0.0 101220
21:00+21всв4452100 0.0 101240
17 мая, пн
пн1700:00+18юв51453100 0.0 1012211
03:00+18юв4946100 0.0 1012128
06:00+17вюв5125532 0.0 1013201
09:00+23вюв7134285 0.0 1013518
12:00+28юв7103414 0.0 10121040
15:00+29вюв71234100 0.0 10112543
18:00+24вюв51347100 0.0 1011302
21:00+21вюв7164748 0.0 1011314
18 мая, вт
вт1800:00+19вюв613456 0.0 1011208
03:00+16вюв511488 0.0 1011145
06:00+16вюв410554 0.0 1010149
09:00+23вюв714420 0.0 1009550
12:00+28вюв81334100 0.0 10091111
15:00+29вюв81534100 0.0 10082390
18:00+26вюв715416 0.0 1007410
21:00+20юв51051100 0.0 1009149
19 мая, ср
ср1900:00+19юв2252100 0.0 100827
03:00+17ююв2258100 0.0 100820
06:00+17юз347980 0.0 1009160
09:00+20з4470100 0.0 1010584
12:00+23юв0258100 0.0 1009959
15:00+22ююз4663100 0.1 1009416
18:00+19юз697573 0.4 1009616
21:00+16ююз5117097 0.4 1010516
20 мая, чт
чт2000:00+13ю358397 0.0 1012100
03:00+12ю49905 0.0 1012252
06:00+12ююз588936 0.0 1013388
09:00+15ююз5678100 0.1 1014808
12:00+17ююз566969 0.5 10151123
15:00+19юз5656100 1.1 10151728
18:00+18зюз566717 0.2 10161007
21:00+13з23835 0.3 101725